This is the latest recevied weather packets stored in our database for station/object K3PPP. If no packets are shown the sender has not sent any weather packets the latest 10 day(s).
| Time | Temp. | Humidity | Pressure | Rain* | Wind** | Luminosity | Snow |
|---|---|---|---|---|---|---|---|
| 1777940169 | 16.11° C | 62% | 1010.2 hPa | 0 mm | - | 2 W/m² | - |
| 1777939867 | 16.11° C | 62% | 1010.4 hPa | 0 mm | - | 3 W/m² | - |
| 1777939564 | 16.67° C | 61% | 1010.3 hPa | 0 mm | - | 5 W/m² | - |
| 1777939262 | 16.11° C | 61% | 1010.4 hPa | 0 mm | - | 6 W/m² | - |
| 1777938958 | 16.67° C | 61% | 1010.2 hPa | 0 mm | - | 9 W/m² | - |
| 1777938655 | 16.67° C | 60% | 1010.3 hPa | 0 mm | - | 13 W/m² | - |
| 1777938352 | 16.67° C | 60% | 1010.1 hPa | 0 mm | - | 17 W/m² | - |
| 1777938049 | 16.67° C | 59% | 1010 hPa | 0 mm | - | 22 W/m² | - |
| 1777937744 | 16.67° C | 59% | 1009.9 hPa | 0 mm | - | 17 W/m² | - |
| 1777937441 | 17.22° C | 59% | 1009.8 hPa | 0 mm | - | 24 W/m² | - |
| 1777937138 | 17.22° C | 58% | 1009.9 hPa | 0 mm | - | 30 W/m² | - |
| 1777936836 | 17.22° C | 58% | 1010 hPa | 0 mm | - | 40 W/m² | - |
| 1777936532 | 17.22° C | 59% | 1010.1 hPa | 0 mm | - | 30 W/m² | - |
| 1777936228 | 17.22° C | 58% | 1010.2 hPa | 0 mm | - | 25 W/m² | - |
| 1777935925 | 17.22° C | 58% | 1010.1 hPa | 0 mm | - | 32 W/m² | - |
| 1777935624 | 17.22° C | 58% | 1010.3 hPa | 0 mm | - | 49 W/m² | - |
| 1777935320 | 17.78° C | 57% | 1010.3 hPa | 0 mm | - | 36 W/m² | - |
| 1777935017 | 17.78° C | 56% | 1010.3 hPa | 0 mm | - | 45 W/m² | - |
| 1777934714 | 17.78° C | 55% | 1010.2 hPa | 0 mm | - | 89 W/m² | - |
| 1777934411 | 17.78° C | 55% | 1010 hPa | 0 mm | - | 92 W/m² | - |
| 1777934108 | 17.78° C | 55% | 1010 hPa | 0 mm | - | 76 W/m² | - |
| 1777933804 | 17.78° C | 55% | 1009.8 hPa | 0 mm | - | 100 W/m² | - |
| 1777933501 | 17.78° C | 55% | 1010 hPa | 0 mm | - | 39 W/m² | - |
| 1777933198 | 17.78° C | 55% | 1010.3 hPa | 0 mm | - | 83 W/m² | - |
| 1777932895 | 18.33° C | 54% | 1009.8 hPa | 0 mm | - | 93 W/m² | - |
* Rain latest hour (hover to see other rain measurements)
** Current wind speed in m/s (hover to see current wind gust speed)